Location: Lane
(33.5226°N, 79.8788°W)
Time: 10:59:52
(UTC+00:00)

Altair - Pass Details

Date: 05 October 2022
Orbit: 1501 x 1682 km, 47.2° (Epoch: 30 November)

Event Time Altitude Azimuth Distance (km) Brightness Sun altitude
Rises 13:45:18 0° 299° (WNW) 4,860 9.6 28.7°
Reaches altitude 10° 13:48:42 10° 306° (NW) 3,894 9.2 29.3°
Maximum altitude 13:58:07 43° 16° (NNE) 2,221 8.6 31.0°
Drops below altitude 10° 14:07:38 10° 86° (E) 3,942 10.5 32.7°
Sets 14:11:05 0° 93° (E) 4,924 10.9 33.3°
